Regional Weather Roundup
Issued by NWS

Home | Current Version | Previous Version | Text Only | Print | Product List | Glossary On
Versions: 1 2 3 4 5 6 7 8 9 10 11 12 13 14 15 16 17 18 19 20 21 22 23 24 25 26 27
000
ASUS45 KPSR 301310
RWRAZ

ARIZONA HOURLY REGIONAL WEATHER ROUNDUP
NATIONAL WEATHER SERVICE PHOENIX AZ
600 AM MST FRI SEP 30 2016

NOTE: FAIR INDICATES FEW OR NO CLOUDS BELOW 12,000 FEET WITH NO
SIGNIFICANT WEATHER AND/OR OBSTRUCTIONS TO VISIBILITY.

AZZ001>003-036-301400-
NORTHWEST ARIZONA

CITY           SKY/WX    TMP DP  RH WIND       PRES   REMARKS
BULLHEAD CITY  CLEAR     73  50  43 CALM      30.01S
KINGMAN        CLEAR     60  47  61 S3        30.18R
$$

AZZ004>008-015-016-018-301400-
NORTH CENTRAL ARIZONA

CITY           SKY/WX    TMP DP  RH WIND       PRES   REMARKS
GRAND CANYON   PTCLDY    45  43  93 CALM      30.38R
PRESCOTT       CLEAR     51  48  89 SW5       30.28S
FLAGSTAFF      CLEAR     42  42 100 CALM      30.38S
PAYSON         CLEAR     57  52  82 NE3       30.32S
PAGE           CLOUDY    62  56  80 CALM      30.27S
$$

AZZ009>014-017-301400-
NORTHEAST ARIZONA

CITY           SKY/WX    TMP DP  RH WIND       PRES   REMARKS
WINSLOW        CLOUDY    49  48  97 CALM      30.31S FOG
SAINT JOHNS    FOG       50  50 100 N3        30.32S VSB 1/4
WINDOW ROCK    MOCLDY    42  40  92 CALM      30.39S FOG
SHOW LOW       CLEAR     48  46  93 S10       30.36R
$$

AZZ023-301400-
GREATER PHOENIX AREA

CITY           SKY/WX    TMP DP  RH WIND       PRES   REMARKS
PHOENIX        PTCLDY    75  58  55 E8        30.03R
BUCKEYE        CLEAR     68  52  56 W3        30.04R
GLENDALE       CLEAR     73  57  56 N6        30.05
LUKE AFB       CLEAR     70  58  65 NW7       30.03R
DEER VALLEY    CLEAR     73  53  49 NE6       30.05R
SCOTTSDALE     CLEAR     71  58  63 CALM      30.06S
MESA-FALCON    CLEAR    N/A N/A N/A N9        30.02
MESA-GATEWAY   PTCLDY    70  57  64 S5        30.06R
CHANDLER       CLEAR     72  61  68 CALM      30.05
$$

AZZ027-028-301400-
SOUTHWEST MARICOPA COUNTY AND PINAL COUNTY

CITY           SKY/WX    TMP DP  RH WIND       PRES   REMARKS
CASA GRANDE    CLEAR     72  57  60 NE5       30.07R
GILA BEND      FAIR      73  56  54 NE2       30.00R
$$

AZZ503-504-507>509-301400-
SOUTHEAST ARIZONA

CITY           SKY/WX    TMP DP  RH WIND       PRES   REMARKS
TUCSON         CLEAR     72  59  63 SE14      30.13S
DAVIS-MONTHAN  CLEAR     69  60  73 SE13      30.13R
RYAN FIELD     CLEAR     66  63  88 E8        30.12
NOGALES        CLEAR     62  57  83 NE3       30.21R
SIERRA VISTA   PTCLDY    59  57  94 SE3       30.27S
DOUGLAS        LGT RAIN  61  60  97 N8        30.26S
SAFFORD        CLEAR     62  59  90 SE10      30.21R
$$

AZZ020-021-025-026-031-301400-
SOUTHWEST ARIZONA

CITY           SKY/WX    TMP DP  RH WIND       PRES   REMARKS
YUMA           NOT AVBL
$$

CAZ031-033-041-043-047-048-061-301400-
SOUTHERN CALIFORNIA

CITY           SKY/WX    TMP DP  RH WIND       PRES   REMARKS
DOWNTOWN L.A.  CLEAR     67  62  84 CALM      30.01S
L.A. AIRPORT   CLEAR     68  61  78 CALM      30.02S
SAN DIEGO      PTCLDY    72  63  73 CALM      30.02S
BURBANK        CLEAR     68  50  52 CALM      30.03S
ONTARIO        PTCLDY    70  51  51 CALM      30.04S
RIVERSIDE      CLEAR     67  54  63 SE3       30.04S
PALM SPRINGS   CLEAR     79  51  37 N6        29.99S
EL CENTRO NAS  PTCLDY    74  53  48 SW5       29.97R
IMPERIAL       CLEAR     74  55  51 SW6       29.95R
BLYTHE         CLEAR     72  48  42 N5        29.98R
NEEDLES        CLEAR     77  50  38 CALM      30.02R
$$

NVZ020-UTZ003-301400-
SOUTHERN NEVADA-UTAH

CITY           SKY/WX    TMP DP  RH WIND       PRES   REMARKS
LAS VEGAS      MOCLDY    74  46  36 W5        30.09R
SALT LAKE CITY MOCLDY    62  50  64 SE9       30.18S
$$

NMZ009-TXZ055-301400-
NEW MEXICO-WEST TEXAS

CITY           SKY/WX    TMP DP  RH WIND       PRES   REMARKS
ALBUQUERQUE    CLOUDY    59  55  87 E8        30.33F
EL PASO        TSTM      58  56  93 N15       30.30R FOG
$$


........................KEY........................
SKY/WX - SKY CONDITION/WEATHER
TMP    - TEMPERATURE IN FAHRENHEIT
DP     - DEW POINT IN FAHRENHEIT
RH     - RELATIVE HUMIDITY IN PERCENT
WIND   - DIRECTION AND SPEED IN MILES PER HOUR (MPH)
VRB    - VARIABLE WIND DIRECTION
PRES   - MEAN SEA LEVEL PRESSURE IN INCHES OF MERCURY
         F - FALLING PRESSURE   R - RISING PRESSURE
         S - STEADY PRESSURE
VSB    - VISIBILITY IN MILES
HX     - HEAT INDEX IN FAHRENHEIT
WCI    - WIND CHILL INDEX IN FAHRENHEIT
TC     - TEMPERATURE IN CELSIUS WHICH IS ALSO KNOWN AS
         TEMPERATURE IN CENTIGRADE
AFB    - AIR FORCE BASE
         LUKE AFB IS LUKE AIR FORCE BASE
         DAVIS-MONTHAN IS DAVIS-MONTHAN AIR FORCE BASE
NAS    - NAVAL AIR STATION
         EL CENTRO NAS IS EL CENTRO NAVAL AIR STATION
N/A    - NOT AVAILABLE





USA.gov is the U.S. government's official web portal to all federal, state and local government web resources and services.